Location: *
(44.1392°N, 4.8079°E)
Time: 08:46:09
(UTC+00:00)

Cosmos 921 Rocket - Pass Details

Date: 21 June 2021
Orbit: 572 x 632 km, 75.8° (Epoch: 31 July)

Event Time Altitude Azimuth Distance (km) Brightness Sun altitude
Exits shadow 01:44:21 26° 250° (WSW) 1,152 4.0 -16.9°
Maximum altitude 01:45:58 36° 294° (WNW) 928 3.9 -16.8°
Drops below altitude 10° 01:49:50 10° 2° (N) 1,887 6.5 -16.4°
Sets 01:52:11 0° 11° (N) 2,788 7.8 -16.2°
